User: anonymous   Login
Location: Ostrava
(49.8330°N, 18.2830°E)
Time: 19:26:12
(UTC+01:00)
Language:

Cosmos 1766 - Orbit

View from above orbital plane
View from above orbital plane
View from above satellite
View from above satellite

Ground track
Ground track

The orbit data is extracted from the following two-line orbital elements,

1 16881U 86055A   14354.81476938  .00006379  00000-0  42538-3 0   419
2 16881 082.5064 191.6828 0011011 311.2719 048.7560 15.06862533544297
Epoch (UTC): 20 December 2014 19:33:16
Eccentricity: 0.0011011
inclination: 82.5064°
perigee height: 538 km
apogee height: 553 km
right ascension of ascending node: 191.6828°
argument of perigee: 311.2719°
revolutions per day: 15.06862533
mean anomaly at epoch: 48.7560°
orbit number at epoch: 54429

The dashed part of the orbit path shows where the satellite is in the earth's shadow,  

DLR